Home > Weather > Darmstadt > Past weeks

Flag for Germany Past Weather in Darmstadt, Hesse, Germany — Yesterday and Last 2 Weeks

Now
70 °F

Broken clouds.


Feels Like: 70 °F
Forecast: 57 / 76 °F
Wind: 9 mph from Southwest

Location: Frankfurt-M-Flughafen Airport

Current Time: Jun 30, 2016 at 12:39:59 PM

Latest Report: Jun 30, 2016 at 12:20 PM


Visibility: N/A

Pressure: 29.98 "Hg

Humidity: 60%

Dew Point: 55 °F

Location of DarmstadtLocation

Past Weather in Darmstadt — Graph

°F

Darmstadt Temperature Yesterday

Maximum temperature yesterday: 75 °F (at 2:50 PM)
Minimum temperature yesterday: 59 °F (at 11:50 PM)
Average temperature yesterday: 68 °F

High & Low Weather Summary for the Past Weeks

 TemperatureHumidityPressure
High93 °F (Jun 23, 4:50 PM)100% (Jun 16, 12:20 AM)30.27 "Hg (Jun 16, 12:20 AM)
Low45 °F (Jun 20, 4:50 AM)30% (Jun 23, 4:50 PM)29.56 "Hg (Jun 15, 11:20 AM)
Average65 °F77%30.00 "Hg
* Reported Jun 15 11:20 AM — Jun 30 11:20 AM, Darmstadt, Weather by CustomWeather, © 2016

Note: Actual official high and low records may vary slightly from our data, if they occured in-between our weather recording intervals... More about our weather records

Advertising

Darmstadt Weather History for the Previous 24 Hours

Scroll right to see more
 ConditionsComfort  
Time TempWeatherWind HumidityBarometerVisibility
11:20 AM
Thu, Jun 30
68 °FBroken clouds.8 mph73%29.98 "HgN/A
10:50 AM68 °FBroken clouds.5 mph78%29.95 "HgN/A
10:20 AM64 °FLight rain. Partly sunny.5 mph83%29.98 "HgN/A
9:50 AM64 °FLight rain. Partly sunny.5 mph83%29.98 "HgN/A
9:20 AM64 °FLight rain. Broken clouds.5 mph83%29.95 "HgN/A
8:50 AM63 °FLight rain. Broken clouds.6 mph88%29.95 "HgN/A
8:20 AM61 °FPartly sunny.3 mph88%29.95 "HgN/A
7:50 AM61 °FLight rain. Partly sunny.3 mph88%29.95 "HgN/A
7:20 AM59 °FLight rain. Broken clouds.2 mph94%29.95 "HgN/A
6:50 AM59 °FLight rain. Broken clouds.2 mph94%29.92 "HgN/A
6:20 AM59 °FLight rain. Mostly cloudy.3 mph88%29.92 "HgN/A
5:50 AM59 °FMostly cloudy.3 mph94%29.92 "HgN/A
5:20 AM59 °FLight rain. Partly cloudy.3 mph88%29.92 "HgN/A
4:50 AM57 °FClear.2 mph94%29.92 "Hg10 mi
4:20 AM57 °FClear.2 mph94%29.92 "Hg10 mi
3:50 AM57 °FClear.1 mph94%29.92 "Hg10 mi
3:20 AM57 °FClear.2 mph94%29.92 "Hg10 mi
2:50 AM57 °FClear.2 mph94%29.92 "Hg10 mi
2:20 AM57 °FClear.2 mph88%29.89 "Hg10 mi
1:50 AM57 °FClear.1 mph88%29.89 "Hg10 mi
1:20 AM57 °FClear.1 mph88%29.92 "Hg10 mi
12:50 AM57 °FClear.1 mph88%29.92 "Hg10 mi
12:20 AM57 °FPassing clouds.5 mph88%29.92 "HgN/A
11:50 PM
Wed, Jun 29
59 °FClear.2 mph82%29.92 "Hg10 mi
11:20 PM61 °FClear.5 mph77%29.92 "Hg10 mi
10:50 PM63 °FClear.5 mph73%29.92 "Hg10 mi
10:20 PM63 °FSunny.5 mph73%29.92 "Hg10 mi
9:50 PM64 °FSunny.5 mph68%29.92 "Hg10 mi
9:20 PM68 °FSunny.5 mph60%29.92 "Hg10 mi
8:50 PM70 °FSunny.8 mph53%29.92 "Hg10 mi
8:20 PM72 °FSunny.7 mph47%29.92 "Hg10 mi
7:50 PM73 °FSunny.9 mph44%29.89 "Hg10 mi
7:20 PM73 °FSunny.12 mph44%29.92 "Hg10 mi
6:50 PM73 °FSunny.12 mph44%29.89 "Hg10 mi
6:20 PM75 °FPassing clouds.13 mph41%29.89 "HgN/A
5:50 PM75 °FPassing clouds.12 mph39%29.92 "HgN/A
5:20 PM75 °FPassing clouds.13 mph39%29.92 "HgN/A
4:50 PM75 °FPassing clouds.13 mph36%29.92 "HgN/A
4:20 PM73 °FPassing clouds.13 mph38%29.92 "HgN/A
3:50 PM75 °FPassing clouds.12 mph39%29.95 "HgN/A
3:20 PM75 °FPassing clouds.15 mph39%29.95 "HgN/A
2:50 PM75 °FSunny.16 mph36%29.95 "Hg10 mi
2:20 PM73 °FSunny.16 mph36%29.95 "Hg10 mi
1:50 PM73 °FPassing clouds.16 mph38%29.95 "HgN/A
1:20 PM73 °FPassing clouds.17 mph44%29.95 "HgN/A
12:50 PM72 °FSunny.18 mph47%29.95 "Hg10 mi
12:20 PM72 °FBroken clouds.22 mph50%29.95 "HgN/A
Weather by CustomWeather, © 2016

See weather overviewHow to use our weather pages